BRU783 UMMS-LTFM

Flight info

Callsign BRU783
Flight time 4h 48m
Altitude 39000
Route SORFO2F SORFO L979 ASKIL L736 LODKU M56 ABAGI B105 NIMTA/K0874F380 B105 NATIT/K0876F370 DCT MOLED N50 LIDUS/K0880F360 G242 ZG/K0885F350 DCT ITAKA/K0887F340 DCT KUDAS DCT LURIS/N0478F340 DCT SARPI UG67 TBN UM11 CRM UL746 GOKPA UM10 HAKAN UT315 NUGBA
Aircraft A332/H-SDE3GHIJ2J3J5M1RVWXY/LB2D1

Departure

Time 2026-05-04 14:21
Airport Minsk National Airport (UMMS)

Arrival

Time 2026-05-04 19:09
Airport İstanbul Airport (LTFM)
Time Latitude Longitude Altitude Speed Heading
2026-05-04 13:42 53.88855 28.03422 678 ft 0 kts 343°
2026-05-04 14:01 53.88854 28.03422 678 ft 0 kts 343°
2026-05-04 14:03 53.88850 28.03424 678 ft 2 kts 345°
2026-05-04 14:03 53.88836 28.03431 678 ft 2 kts 345°
2026-05-04 14:03 53.88823 28.03437 678 ft 2 kts 341°
2026-05-04 14:04 53.88804 28.03473 678 ft 2 kts 276°
2026-05-04 14:04 53.88804 28.03495 678 ft 2 kts 257°
2026-05-04 14:04 53.88808 28.03520 678 ft 2 kts 250°
2026-05-04 14:05 53.88821 28.03562 678 ft 0 kts 229°
2026-05-04 14:05 53.88823 28.03565 678 ft 0 kts 229°
2026-05-04 14:07 53.88821 28.03563 678 ft 1 kts 229°
2026-05-04 14:08 53.88802 28.03520 678 ft 7 kts 231°
2026-05-04 14:08 53.88778 28.03474 678 ft 5 kts 230°
2026-05-04 14:08 53.88766 28.03448 678 ft 0 kts 230°
2026-05-04 14:08 53.88763 28.03444 678 ft 0 kts 229°
2026-05-04 14:09 53.88730 28.03379 678 ft 5 kts 228°
2026-05-04 14:09 53.88705 28.03334 678 ft 2 kts 227°
2026-05-04 14:10 53.88634 28.03328 678 ft 8 kts 143°
2026-05-04 14:10 53.88598 28.03380 678 ft 7 kts 138°
2026-05-04 14:10 53.88570 28.03421 678 ft 5 kts 139°
2026-05-04 14:10 53.88533 28.03484 678 ft 9 kts 119°
2026-05-04 14:11 53.88553 28.03614 678 ft 14 kts 52°
2026-05-04 14:11 53.88720 28.03942 678 ft 21 kts 48°
2026-05-04 14:11 53.88822 28.04137 678 ft 21 kts 49°
2026-05-04 14:12 53.88913 28.04318 678 ft 20 kts 49°
2026-05-04 14:12 53.89015 28.04513 678 ft 23 kts 50°
2026-05-04 14:12 53.89174 28.04916 678 ft 18 kts 120°
2026-05-04 14:13 53.89076 28.05078 678 ft 21 kts 139°
2026-05-04 14:13 53.88950 28.05254 678 ft 24 kts 139°
2026-05-04 14:13 53.88814 28.05469 678 ft 28 kts 140°
2026-05-04 14:13 53.88656 28.05702 678 ft 31 kts 141°
2026-05-04 14:14 53.88483 28.05950 678 ft 33 kts 135°
2026-05-04 14:14 53.88094 28.06528 677 ft 37 kts 138°
2026-05-04 14:14 53.87961 28.06745 677 ft 15 kts 131°
2026-05-04 14:15 53.87946 28.06829 677 ft 0 kts 74°
2026-05-04 14:18 53.87946 28.06830 677 ft 0 kts 72°
2026-05-04 14:19 53.87950 28.06843 677 ft 3 kts 64°
2026-05-04 14:19 53.87987 28.06930 677 ft 13 kts 47°
2026-05-04 14:19 53.88089 28.06945 678 ft 19 kts 321°
2026-05-04 14:19 53.88119 28.06901 677 ft 0 kts 319°
2026-05-04 14:20 53.88121 28.06898 677 ft 2 kts 319°
2026-05-04 14:20 53.88286 28.06644 678 ft 68 kts 318°
2026-05-04 14:20 53.88840 28.05829 678 ft 137 kts 319°
2026-05-04 14:21 53.90706 28.03146 1234 ft 192 kts 315°
2026-05-04 14:21 53.91730 28.01615 1913 ft 197 kts 310°
2026-05-04 14:21 53.92722 28.00046 2848 ft 196 kts 313°
2026-05-04 14:21 53.93786 27.98462 3319 ft 212 kts 314°
2026-05-04 14:22 53.95020 27.96901 3868 ft 230 kts 331°
2026-05-04 14:22 53.96710 27.96363 4055 ft 271 kts
2026-05-04 14:22 53.98555 27.97471 4785 ft 286 kts 32°
2026-05-04 14:22 53.99898 27.99935 5652 ft 291 kts 59°
2026-05-04 14:23 54.00362 28.06752 7264 ft 298 kts 88°
2026-05-04 14:23 54.00765 28.10224 8012 ft 302 kts 73°
2026-05-04 14:23 54.01355 28.13711 8807 ft 306 kts 72°
2026-05-04 14:24 54.01975 28.17199 9603 ft 309 kts 72°
2026-05-04 14:24 54.02612 28.20752 10321 ft 317 kts 72°
2026-05-04 14:24 54.03296 28.24553 10302 ft 351 kts 72°
2026-05-04 14:24 54.04040 28.28709 10427 ft 378 kts 72°
2026-05-04 14:25 54.04817 28.33059 11135 ft 385 kts 72°
2026-05-04 14:25 54.06398 28.41934 12710 ft 392 kts 72°
2026-05-04 14:25 54.07196 28.46429 13428 ft 396 kts 72°
2026-05-04 14:26 54.08002 28.50979 14151 ft 400 kts 72°
2026-05-04 14:26 54.08808 28.55547 14853 ft 404 kts 72°
2026-05-04 14:26 54.09628 28.60200 15531 ft 409 kts 72°
2026-05-04 14:26 54.10445 28.64849 16168 ft 413 kts 72°
2026-05-04 14:27 54.11283 28.69628 16846 ft 417 kts 73°
2026-05-04 14:27 54.12117 28.74401 17528 ft 420 kts 73°
2026-05-04 14:27 54.12961 28.79239 18221 ft 422 kts 73°
2026-05-04 14:27 54.13799 28.84055 18928 ft 423 kts 73°
2026-05-04 14:28 54.14645 28.88939 19632 ft 425 kts 73°
2026-05-04 14:28 54.15487 28.93807 20330 ft 425 kts 73°
2026-05-04 14:28 54.16318 28.98630 20953 ft 427 kts 73°
2026-05-04 14:28 54.17166 29.03560 21582 ft 429 kts 73°
2026-05-04 14:29 54.18868 29.13501 22650 ft 436 kts 73°
2026-05-04 14:29 54.20588 29.23605 23742 ft 441 kts 73°
2026-05-04 14:30 54.21442 29.28646 24285 ft 443 kts 73°
2026-05-04 14:30 54.22306 29.33753 24834 ft 445 kts 73°
2026-05-04 14:30 54.24034 29.44025 25905 ft 447 kts 73°
2026-05-04 14:31 54.24894 29.49156 26436 ft 449 kts 73°
2026-05-04 14:31 54.26622 29.59518 27507 ft 451 kts 73°
2026-05-04 14:32 54.28354 29.69964 28528 ft 453 kts 74°
2026-05-04 14:32 54.29219 29.75208 29036 ft 454 kts 74°
2026-05-04 14:32 54.30085 29.80465 29548 ft 455 kts 74°
2026-05-04 14:32 54.30944 29.85702 30055 ft 456 kts 74°
2026-05-04 14:33 54.31806 29.90975 30569 ft 457 kts 74°
2026-05-04 14:33 54.32668 29.96261 31083 ft 457 kts 74°
2026-05-04 14:33 54.33525 30.01541 31597 ft 456 kts 74°
2026-05-04 14:33 54.34384 30.06843 32115 ft 456 kts 74°
2026-05-04 14:34 54.35230 30.12080 32625 ft 455 kts 74°
2026-05-04 14:34 54.36069 30.17288 33133 ft 454 kts 74°
2026-05-04 14:34 54.36914 30.22552 33647 ft 452 kts 74°
2026-05-04 14:34 54.37755 30.27808 34160 ft 451 kts 73°
2026-05-04 14:35 54.38587 30.33023 34667 ft 449 kts 73°
2026-05-04 14:35 54.39408 30.38183 35133 ft 446 kts 73°
2026-05-04 14:35 54.40222 30.43316 35594 ft 443 kts 73°
2026-05-04 14:35 54.41028 30.48420 35948 ft 443 kts 73°
2026-05-04 14:36 54.41836 30.53544 36169 ft 446 kts 73°
2026-05-04 14:36 54.42661 30.58800 36425 ft 447 kts 73°
2026-05-04 14:36 54.43468 30.63949 36675 ft 449 kts 73°
2026-05-04 14:36 54.44282 30.69167 36971 ft 450 kts 74°
2026-05-04 14:37 54.45099 30.74415 37287 ft 451 kts 74°
2026-05-04 14:37 54.45913 30.79662 37616 ft 451 kts 74°
2026-05-04 14:37 54.46720 30.84881 37932 ft 451 kts 74°
2026-05-04 14:37 54.47522 30.90084 38186 ft 452 kts 74°
2026-05-04 14:38 54.48329 30.95337 38448 ft 453 kts 74°
2026-05-04 14:38 54.49141 31.00639 38715 ft 453 kts 75°
2026-05-04 14:38 54.49937 31.05855 38932 ft 454 kts 74°
2026-05-04 14:39 54.51052 31.16747 38930 ft 463 kts 81°
2026-05-04 14:39 54.51988 31.27862 38905 ft 471 kts 81°
2026-05-04 14:40 54.53405 31.44813 38907 ft 479 kts 81°
2026-05-04 14:40 54.54351 31.56288 38908 ft 482 kts 81°
2026-05-04 14:41 54.55297 31.67900 38896 ft 485 kts 81°
2026-05-04 14:42 54.57153 31.91117 38906 ft 487 kts 81°
2026-05-04 14:42 54.58066 32.02739 38899 ft 488 kts 81°
2026-05-04 14:43 54.58970 32.14413 38896 ft 489 kts 81°
2026-05-04 14:43 54.59865 32.26121 38898 ft 490 kts 81°
2026-05-04 14:44 54.60744 32.37763 38893 ft 490 kts 81°
2026-05-04 14:44 54.61617 32.49482 38911 ft 490 kts 81°
2026-05-04 14:45 54.62480 32.61219 38912 ft 490 kts 81°
2026-05-04 14:45 54.63330 32.72948 38909 ft 490 kts 82°
2026-05-04 14:46 54.64170 32.84701 38916 ft 489 kts 82°
2026-05-04 14:46 54.64995 32.96402 38913 ft 489 kts 82°
2026-05-04 14:47 54.65810 33.08130 38902 ft 490 kts 82°
2026-05-04 14:47 54.66613 33.19846 38918 ft 489 kts 82°
2026-05-04 14:48 54.67404 33.31556 38927 ft 489 kts 82°
2026-05-04 14:48 54.68183 33.43263 38929 ft 489 kts 82°
2026-05-04 14:49 54.68951 33.54982 38926 ft 481 kts 82°
2026-05-04 14:49 54.69690 33.66435 38929 ft 474 kts 82°
2026-05-04 14:50 54.70417 33.77857 38911 ft 476 kts 82°
2026-05-04 14:50 54.71028 33.89315 38911 ft 478 kts 86°
2026-05-04 14:51 54.71257 34.00907 38917 ft 478 kts 87°
2026-05-04 14:51 54.71455 34.12455 38916 ft 478 kts 87°
2026-05-04 14:52 54.71644 34.24021 38914 ft 478 kts 87°
2026-05-04 14:52 54.71822 34.35631 38918 ft 478 kts 86°
2026-05-04 14:53 54.71988 34.47204 38917 ft 478 kts 87°
2026-05-04 14:53 54.72143 34.58686 38922 ft 477 kts 87°
2026-05-04 14:54 54.72287 34.70205 38921 ft 476 kts 88°
2026-05-04 14:54 54.72420 34.81794 38912 ft 477 kts 88°
2026-05-04 14:55 54.72541 34.93304 38917 ft 477 kts 88°
2026-05-04 14:55 54.72652 35.04810 38911 ft 477 kts 88°
2026-05-04 14:56 54.72752 35.16333 38919 ft 477 kts 87°
2026-05-04 14:56 54.72841 35.27849 38925 ft 478 kts 87°
2026-05-04 14:57 54.72919 35.39382 38913 ft 477 kts 87°
2026-05-04 14:57 54.72987 35.50905 38912 ft 476 kts 87°
2026-05-04 14:58 54.73042 35.62389 38914 ft 477 kts 87°
2026-05-04 14:58 54.73081 35.71999 38904 ft 476 kts 88°
2026-05-04 14:59 54.73122 35.85408 38902 ft 476 kts 88°
2026-05-04 15:00 54.73153 36.02616 38902 ft 478 kts 88°
2026-05-04 15:00 54.73161 36.14206 38903 ft 478 kts 88°
2026-05-04 15:01 54.73151 36.31469 38918 ft 477 kts 88°
2026-05-04 15:01 54.73130 36.43019 38918 ft 477 kts 88°
2026-05-04 15:02 54.73100 36.54516 38920 ft 476 kts 88°
2026-05-04 15:02 54.73058 36.66006 38918 ft 478 kts 89°
2026-05-04 15:03 54.73004 36.77613 38924 ft 477 kts 89°
2026-05-04 15:03 54.72940 36.89086 38921 ft 477 kts 89°
2026-05-04 15:04 54.72866 37.00682 38918 ft 477 kts 89°
2026-05-04 15:04 54.72781 37.12144 38931 ft 476 kts 89°
2026-05-04 15:05 54.72683 37.23708 38921 ft 477 kts 89°
2026-05-04 15:05 54.72430 37.35272 38902 ft 478 kts 97°
2026-05-04 15:06 54.71571 37.40883 38939 ft 481 kts 110°
2026-05-04 15:06 54.70163 37.46161 38936 ft 483 kts 115°
2026-05-04 15:07 54.65813 37.61912 38912 ft 481 kts 113°
2026-05-04 15:07 54.62927 37.72383 38914 ft 482 kts 114°
2026-05-04 15:08 54.60026 37.82854 38913 ft 480 kts 114°
2026-05-04 15:08 54.57125 37.93290 38912 ft 480 kts 114°
2026-05-04 15:09 54.54210 38.03715 38924 ft 480 kts 114°
2026-05-04 15:09 54.51298 38.14089 38924 ft 481 kts 114°
2026-05-04 15:10 54.48973 38.24857 38931 ft 476 kts 98°
2026-05-04 15:10 54.48336 38.30458 38937 ft 478 kts 100°
2026-05-04 15:11 54.46183 38.47284 38925 ft 476 kts 100°
2026-05-04 15:11 54.44637 38.58346 38918 ft 477 kts 104°
2026-05-04 15:12 54.42783 38.69389 38914 ft 477 kts 105°
2026-05-04 15:12 54.40926 38.80352 38922 ft 477 kts 105°
2026-05-04 15:13 54.39045 38.91389 38923 ft 478 kts 105°
2026-05-04 15:13 54.37161 39.02379 38923 ft 477 kts 105°
2026-05-04 15:14 54.35284 39.13253 38923 ft 478 kts 105°
2026-05-04 15:14 54.33386 39.24184 38928 ft 477 kts 105°
2026-05-04 15:15 54.31470 39.35148 38926 ft 477 kts 105°
2026-05-04 15:15 54.29541 39.46126 38935 ft 477 kts 105°
2026-05-04 15:16 54.26649 39.62455 38936 ft 477 kts 105°
2026-05-04 15:17 54.23728 39.78799 38937 ft 477 kts 106°
2026-05-04 15:17 54.20795 39.95063 38931 ft 477 kts 106°
2026-05-04 15:18 54.18814 40.05967 38934 ft 477 kts 106°
2026-05-04 15:19 54.15843 40.22200 38926 ft 478 kts 106°
2026-05-04 15:19 54.12827 40.38543 38933 ft 477 kts 106°
2026-05-04 15:20 54.10819 40.49337 38941 ft 477 kts 106°
2026-05-04 15:20 54.08783 40.60223 38945 ft 477 kts 106°
2026-05-04 15:21 54.06758 40.70992 38943 ft 477 kts 107°
2026-05-04 15:22 54.03687 40.87196 38955 ft 477 kts 107°
2026-05-04 15:22 54.00597 41.03366 38969 ft 477 kts 107°
2026-05-04 15:23 53.98518 41.14171 38964 ft 477 kts 107°
2026-05-04 15:23 53.96437 41.24921 38956 ft 478 kts 107°
2026-05-04 15:24 53.92240 41.46423 38955 ft 478 kts 107°
2026-05-04 15:25 53.90118 41.57204 38955 ft 479 kts 107°
2026-05-04 15:26 53.86921 41.73337 38953 ft 479 kts 108°
2026-05-04 15:26 53.83705 41.89426 38944 ft 479 kts 108°
2026-05-04 15:27 53.80485 42.05416 38953 ft 478 kts 108°
2026-05-04 15:28 53.77232 42.21429 38964 ft 480 kts 108°
2026-05-04 15:29 53.73941 42.37500 38928 ft 481 kts 108°
2026-05-04 15:30 53.63011 42.71207 38953 ft 481 kts 156°
2026-05-04 15:31 53.53703 42.77802 38969 ft 481 kts 158°
2026-05-04 15:32 53.38205 42.88935 38981 ft 481 kts 158°
2026-05-04 15:34 53.22749 42.99957 38988 ft 480 kts 158°
2026-05-04 15:34 53.13451 43.06550 38995 ft 481 kts 158°
2026-05-04 15:35 53.04266 43.13390 38997 ft 481 kts 157°
2026-05-04 15:36 52.95041 43.20226 38994 ft 481 kts 157°
2026-05-04 15:36 52.88907 43.24754 38988 ft 479 kts 157°
2026-05-04 15:37 52.82793 43.29252 38980 ft 479 kts 157°
2026-05-04 15:37 52.76628 43.33774 38990 ft 479 kts 157°
2026-05-04 15:38 52.70530 43.38233 38995 ft 479 kts 157°
2026-05-04 15:38 52.64397 43.42704 38989 ft 479 kts 157°
2026-05-04 15:39 52.58267 43.47160 38991 ft 478 kts 157°
2026-05-04 15:40 52.49100 43.53797 38997 ft 478 kts 157°
2026-05-04 15:40 52.42972 43.58217 39007 ft 478 kts 157°
2026-05-04 15:41 52.36822 43.62639 39014 ft 477 kts 157°
2026-05-04 15:41 52.30718 43.67015 39009 ft 477 kts 158°
2026-05-04 15:42 52.24606 43.71383 39018 ft 476 kts 158°
2026-05-04 15:42 52.18496 43.75735 39028 ft 477 kts 158°
2026-05-04 15:43 52.12402 43.80065 39033 ft 477 kts 158°
2026-05-04 15:43 52.06276 43.84404 39032 ft 477 kts 158°
2026-05-04 15:44 52.00201 43.88696 39038 ft 476 kts 158°
2026-05-04 15:44 51.94067 43.93014 39038 ft 475 kts 158°
2026-05-04 15:45 51.87980 43.97286 39040 ft 475 kts 158°
2026-05-04 15:45 51.81855 44.01573 39040 ft 477 kts 158°
2026-05-04 15:46 51.75758 44.05828 39037 ft 477 kts 158°
2026-05-04 15:46 51.69593 44.10117 39036 ft 476 kts 158°
2026-05-04 15:47 51.63488 44.14351 39036 ft 476 kts 158°
2026-05-04 15:47 51.57376 44.18579 39036 ft 476 kts 158°
2026-05-04 15:48 51.51237 44.22812 39031 ft 476 kts 158°
2026-05-04 15:48 51.42090 44.29097 39027 ft 476 kts 158°
2026-05-04 15:49 51.35972 44.33286 39028 ft 475 kts 158°
2026-05-04 15:49 51.29834 44.37475 39029 ft 475 kts 158°
2026-05-04 15:50 51.23736 44.41626 39031 ft 475 kts 158°
2026-05-04 15:50 51.17582 44.45749 39028 ft 475 kts 162°
2026-05-04 15:51 51.14356 44.46844 39028 ft 469 kts 178°
2026-05-04 15:51 51.11103 44.46623 39073 ft 467 kts 187°
2026-05-04 15:51 51.04559 44.45862 39037 ft 468 kts 185°
2026-05-04 15:52 50.98004 44.45233 39033 ft 467 kts 185°
2026-05-04 15:52 50.91479 44.44624 39027 ft 468 kts 185°
2026-05-04 15:53 50.84946 44.44015 39027 ft 467 kts 185°
2026-05-04 15:53 50.78382 44.43406 39028 ft 467 kts 185°
2026-05-04 15:54 50.71871 44.42802 39026 ft 467 kts 185°
2026-05-04 15:54 50.65348 44.42200 39024 ft 467 kts 185°
2026-05-04 15:55 50.58823 44.41598 39022 ft 467 kts 185°
2026-05-04 15:55 50.52340 44.41005 38962 ft 460 kts 185°
2026-05-04 15:56 50.49130 44.40710 38286 ft 458 kts 185°
2026-05-04 15:56 50.45950 44.40419 37905 ft 453 kts 185°
2026-05-04 15:56 50.42806 44.40131 38153 ft 453 kts 185°
2026-05-04 15:56 50.39568 44.39835 37941 ft 462 kts 185°
2026-05-04 15:57 50.36348 44.39542 38057 ft 464 kts 185°
2026-05-04 15:57 50.33075 44.39244 38015 ft 469 kts 185°
2026-05-04 15:57 50.26464 44.38643 38022 ft 474 kts 185°
2026-05-04 15:58 50.19875 44.38047 38015 ft 468 kts 185°
2026-05-04 15:58 50.13385 44.37460 38016 ft 464 kts 185°
2026-05-04 15:59 50.06853 44.36872 38020 ft 464 kts 185°
2026-05-04 15:59 50.00387 44.36291 38024 ft 464 kts 185°
2026-05-04 16:00 49.93889 44.35708 38020 ft 464 kts 185°
2026-05-04 16:00 49.87390 44.35127 38022 ft 464 kts 185°
2026-05-04 16:01 49.80896 44.34549 38015 ft 464 kts 185°
2026-05-04 16:01 49.74430 44.33974 38026 ft 464 kts 185°
2026-05-04 16:02 49.67920 44.33397 38027 ft 463 kts 185°
2026-05-04 16:03 49.58192 44.32600 38015 ft 463 kts 180°
2026-05-04 16:03 49.54984 44.33362 38018 ft 466 kts 164°
2026-05-04 16:03 49.52005 44.35297 38063 ft 469 kts 156°
2026-05-04 16:04 49.45940 44.39338 38019 ft 468 kts 159°
2026-05-04 16:04 49.36855 44.45123 38031 ft 468 kts 159°
2026-05-04 16:05 49.30819 44.48943 38031 ft 468 kts 159°
2026-05-04 16:06 49.21755 44.54657 38035 ft 467 kts 159°
2026-05-04 16:07 49.09678 44.62237 38033 ft 466 kts 159°
2026-05-04 16:08 48.97555 44.69807 38030 ft 466 kts 160°
2026-05-04 16:09 48.82631 44.79469 38002 ft 466 kts 148°
2026-05-04 16:10 48.72417 44.91785 38021 ft 468 kts 143°
2026-05-04 16:11 48.62139 45.03923 38030 ft 467 kts 144°
2026-05-04 16:12 48.46664 45.22065 38018 ft 467 kts 144°
2026-05-04 16:13 48.35855 45.32853 38041 ft 462 kts 156°
2026-05-04 16:14 48.24252 45.41318 38018 ft 461 kts 155°
2026-05-04 16:16 48.09743 45.51913 38004 ft 460 kts 155°
2026-05-04 16:17 47.95275 45.62413 38002 ft 459 kts 155°
2026-05-04 16:18 47.83672 45.70786 37997 ft 459 kts 156°
2026-05-04 16:19 47.69506 45.80951 38000 ft 458 kts 156°
2026-05-04 16:20 47.55054 45.91258 37996 ft 456 kts 156°
2026-05-04 16:22 47.40685 46.01443 37989 ft 457 kts 156°
2026-05-04 16:23 47.23330 46.13708 37991 ft 456 kts 156°
2026-05-04 16:25 47.06113 46.25940 37972 ft 457 kts 149°
2026-05-04 16:26 46.98565 46.41082 37970 ft 465 kts 124°
2026-05-04 16:26 46.93337 46.53130 37976 ft 463 kts 124°
2026-05-04 16:28 46.84581 46.73109 37952 ft 463 kts 125°
2026-05-04 16:29 46.72282 47.00930 37962 ft 464 kts 125°
2026-05-04 16:31 46.63541 47.20874 37950 ft 464 kts 124°
2026-05-04 16:32 46.53067 47.44782 37934 ft 464 kts 124°
2026-05-04 16:33 46.46046 47.60689 37926 ft 465 kts 125°
2026-05-04 16:34 46.40774 47.72575 37931 ft 464 kts 126°
2026-05-04 16:35 46.30197 47.96275 37895 ft 465 kts 126°
2026-05-04 16:36 46.26753 48.09432 37936 ft 474 kts 103°
2026-05-04 16:37 46.24675 48.23498 37916 ft 473 kts 105°
2026-05-04 16:38 46.21799 48.42135 37904 ft 473 kts 105°
2026-05-04 16:39 46.18024 48.54913 37915 ft 459 kts 137°
2026-05-04 16:39 46.12493 48.59287 37907 ft 450 kts 169°
2026-05-04 16:40 46.06228 48.59338 37903 ft 449 kts 183°
2026-05-04 16:40 45.99942 48.58933 37897 ft 447 kts 183°
2026-05-04 16:41 45.84322 48.57988 37908 ft 446 kts 183°
2026-05-04 16:43 45.68698 48.57054 37902 ft 445 kts 183°
2026-05-04 16:43 45.60354 48.56556 37896 ft 446 kts 183°
2026-05-04 16:45 45.40596 48.55383 37891 ft 445 kts 183°
2026-05-04 16:46 45.25017 48.54465 37894 ft 444 kts 183°
2026-05-04 16:47 45.12632 48.53740 37895 ft 444 kts 183°
2026-05-04 16:48 45.00230 48.53014 37887 ft 443 kts 183°
2026-05-04 16:49 44.87843 48.52295 37886 ft 443 kts 183°
2026-05-04 16:50 44.75395 48.51574 37885 ft 444 kts 183°
2026-05-04 16:51 44.66124 48.51039 37887 ft 444 kts 183°
2026-05-04 16:52 44.53702 48.50325 37893 ft 445 kts 183°
2026-05-04 16:53 44.44365 48.49790 37895 ft 445 kts 183°
2026-05-04 16:54 44.31906 48.49080 37892 ft 443 kts 183°
2026-05-04 16:55 44.13237 48.48020 37894 ft 445 kts 183°
2026-05-04 16:56 43.97636 48.47141 37877 ft 445 kts 183°
2026-05-04 16:57 43.88280 48.46616 37887 ft 445 kts 183°
2026-05-04 16:58 43.75811 48.45916 37898 ft 446 kts 183°
2026-05-04 17:00 43.57073 48.44874 37892 ft 445 kts 184°
2026-05-04 17:01 43.41457 48.44010 37891 ft 446 kts 184°
2026-05-04 17:02 43.28910 48.43275 37877 ft 446 kts 187°
2026-05-04 17:02 43.23242 48.40048 37908 ft 445 kts 219°
2026-05-04 17:03 43.21140 48.36901 37884 ft 448 kts 235°
2026-05-04 17:03 43.19791 48.33001 37904 ft 452 kts 251°
2026-05-04 17:03 43.17825 48.24775 37894 ft 451 kts 247°
2026-05-04 17:04 43.13186 48.08703 37892 ft 451 kts 246°
2026-05-04 17:05 43.08488 47.92661 37899 ft 453 kts 246°
2026-05-04 17:06 43.04916 47.80538 37901 ft 456 kts 246°
2026-05-04 17:07 43.02135 47.71137 37906 ft 455 kts 246°
2026-05-04 17:07 42.98945 47.60392 37926 ft 455 kts 246°
2026-05-04 17:08 42.95328 47.48270 37887 ft 455 kts 246°
2026-05-04 17:09 42.92936 47.40279 37907 ft 457 kts 246°
2026-05-04 17:09 42.90518 47.32228 37940 ft 458 kts 245°
2026-05-04 17:10 42.84342 47.11784 37938 ft 470 kts 245°
2026-05-04 17:11 42.81812 47.03452 37918 ft 473 kts 245°
2026-05-04 17:12 42.78014 46.90995 37945 ft 474 kts 245°
2026-05-04 17:13 42.71620 46.70165 37961 ft 475 kts 245°
2026-05-04 17:14 42.66488 46.53561 37960 ft 474 kts 245°
2026-05-04 17:15 42.62627 46.41138 37974 ft 472 kts 245°
2026-05-04 17:16 42.57536 46.24845 38056 ft 469 kts 244°
2026-05-04 17:17 42.52392 46.08490 37983 ft 469 kts 244°
2026-05-04 17:18 42.47241 45.92207 37956 ft 466 kts 244°
2026-05-04 17:19 42.42140 45.75994 38001 ft 466 kts 249°
2026-05-04 17:20 42.39064 45.58774 38013 ft 468 kts 253°
2026-05-04 17:20 42.36697 45.45865 37993 ft 469 kts 252°
2026-05-04 17:21 42.33519 45.28692 37944 ft 470 kts 252°
2026-05-04 17:22 42.31910 45.20060 37925 ft 470 kts 252°
2026-05-04 17:23 42.28688 45.02879 37912 ft 470 kts 251°
2026-05-04 17:24 42.26250 44.89990 37909 ft 470 kts 251°
2026-05-04 17:25 42.22999 44.72924 37930 ft 470 kts 251°
2026-05-04 17:26 42.19699 44.55747 37880 ft 471 kts 251°
2026-05-04 17:27 42.15563 44.34443 37862 ft 471 kts 251°
2026-05-04 17:28 42.12206 44.17319 37850 ft 472 kts 250°
2026-05-04 17:29 42.07144 43.91762 37848 ft 471 kts 250°
2026-05-04 17:31 42.02862 43.70410 37889 ft 471 kts 250°
2026-05-04 17:31 41.99909 43.58112 37096 ft 446 kts 247°
2026-05-04 17:32 41.97961 43.50173 35249 ft 451 kts 246°
2026-05-04 17:33 41.94978 43.38071 33951 ft 457 kts 246°
2026-05-04 17:33 41.93957 43.33949 33844 ft 467 kts 246°
2026-05-04 17:34 41.89843 43.17371 33842 ft 460 kts 245°
2026-05-04 17:35 41.84761 42.97057 33888 ft 459 kts 245°
2026-05-04 17:36 41.82710 42.88918 33914 ft 460 kts 246°
2026-05-04 17:36 41.80642 42.80731 33919 ft 461 kts 246°
2026-05-04 17:37 41.78569 42.72547 33908 ft 462 kts 246°
2026-05-04 17:37 41.76476 42.64324 33923 ft 463 kts 246°
2026-05-04 17:38 41.74383 42.56123 33942 ft 463 kts 246°
2026-05-04 17:38 41.72294 42.47975 33941 ft 462 kts 246°
2026-05-04 17:39 41.69130 42.35667 33929 ft 464 kts 246°
2026-05-04 17:39 41.67008 42.27448 33935 ft 464 kts 246°
2026-05-04 17:40 41.64884 42.19263 33917 ft 464 kts 246°
2026-05-04 17:40 41.62746 42.11041 33924 ft 465 kts 246°
2026-05-04 17:41 41.60606 42.02842 33912 ft 467 kts 246°
2026-05-04 17:41 41.58456 41.94630 33908 ft 467 kts 247°
2026-05-04 17:42 41.56298 41.86409 33886 ft 468 kts 246°
2026-05-04 17:42 41.54135 41.78213 33883 ft 466 kts 247°
2026-05-04 17:43 41.51967 41.70011 33873 ft 466 kts 247°
2026-05-04 17:43 41.49791 41.61816 33874 ft 468 kts 247°
2026-05-04 17:44 41.47606 41.53611 33866 ft 467 kts 248°
2026-05-04 17:44 41.45419 41.45424 33865 ft 468 kts 248°
2026-05-04 17:45 41.43214 41.37199 33871 ft 468 kts 248°
2026-05-04 17:45 41.41007 41.28995 33882 ft 468 kts 247°
2026-05-04 17:46 41.38801 41.20823 33876 ft 468 kts 247°
2026-05-04 17:46 41.36574 41.12591 33889 ft 467 kts 247°
2026-05-04 17:47 41.34356 41.04430 33878 ft 466 kts 247°
2026-05-04 17:47 41.32144 40.96311 33875 ft 468 kts 248°
2026-05-04 17:48 41.29909 40.88138 33864 ft 468 kts 248°
2026-05-04 17:48 41.27663 40.79951 33867 ft 469 kts 248°
2026-05-04 17:49 41.25413 40.71778 33868 ft 468 kts 248°
2026-05-04 17:49 41.23154 40.63594 33866 ft 468 kts 248°
2026-05-04 17:50 41.20894 40.55436 33855 ft 467 kts 248°
2026-05-04 17:50 41.18639 40.47325 33869 ft 466 kts 248°
2026-05-04 17:51 41.16369 40.39183 33871 ft 467 kts 248°
2026-05-04 17:51 41.14098 40.31060 33872 ft 468 kts 247°
2026-05-04 17:52 41.11821 40.22950 33870 ft 466 kts 247°
2026-05-04 17:52 41.09530 40.14811 33862 ft 467 kts 247°
2026-05-04 17:53 41.07241 40.06707 33869 ft 466 kts 247°
2026-05-04 17:53 41.04946 39.98606 33868 ft 466 kts 247°
2026-05-04 17:54 41.02645 39.90506 33868 ft 467 kts 247°
2026-05-04 17:54 41.00338 39.82400 33872 ft 466 kts 248°
2026-05-04 17:55 40.99586 39.78220 33853 ft 471 kts 262°
2026-05-04 17:55 40.99738 39.73822 33880 ft 477 kts 278°
2026-05-04 17:55 41.00895 39.65108 33867 ft 478 kts 276°
2026-05-04 17:56 41.01756 39.56341 33869 ft 477 kts 275°
2026-05-04 17:56 41.02589 39.47551 33865 ft 478 kts 275°
2026-05-04 17:57 41.03410 39.38791 33867 ft 478 kts 275°
2026-05-04 17:57 41.04229 39.29992 33865 ft 478 kts 274°
2026-05-04 17:58 41.05042 39.21180 33866 ft 477 kts 275°
2026-05-04 17:58 41.05844 39.12417 33871 ft 478 kts 275°
2026-05-04 17:59 41.06658 39.03635 33869 ft 480 kts 275°
2026-05-04 18:00 41.07872 38.90407 33876 ft 480 kts 275°
2026-05-04 18:00 41.08674 38.81566 33879 ft 480 kts 275°
2026-05-04 18:01 41.09471 38.72712 33880 ft 480 kts 275°
2026-05-04 18:01 41.10243 38.63898 33878 ft 480 kts 275°
2026-05-04 18:02 41.11371 38.50599 33878 ft 482 kts 275°
2026-05-04 18:02 41.12113 38.41704 33882 ft 482 kts 275°
2026-05-04 18:03 41.12849 38.32811 33892 ft 483 kts 274°
2026-05-04 18:03 41.13581 38.23899 33898 ft 483 kts 274°
2026-05-04 18:04 41.14309 38.14991 33896 ft 484 kts 274°
2026-05-04 18:05 41.15396 38.01562 33890 ft 484 kts 274°
2026-05-04 18:05 41.16111 37.92606 33906 ft 484 kts 274°
2026-05-04 18:06 41.17239 37.79093 33896 ft 487 kts 275°
2026-05-04 18:06 41.17994 37.70165 33897 ft 487 kts 275°
2026-05-04 18:07 41.18742 37.61164 33903 ft 487 kts 274°
2026-05-04 18:07 41.19239 37.52158 33901 ft 488 kts 275°
2026-05-04 18:08 41.19928 37.43088 33900 ft 488 kts 275°
2026-05-04 18:08 41.20592 37.34128 33902 ft 489 kts 274°
2026-05-04 18:09 41.21951 37.16005 33905 ft 490 kts 275°
2026-05-04 18:10 41.22650 37.06992 33903 ft 490 kts 275°
2026-05-04 18:10 41.23348 36.97899 33904 ft 491 kts 275°
2026-05-04 18:11 41.24041 36.88776 33894 ft 501 kts 275°
2026-05-04 18:11 41.24741 36.79459 33894 ft 509 kts 275°
2026-05-04 18:12 41.25444 36.69989 33895 ft 514 kts 275°
2026-05-04 18:12 41.26141 36.60525 33896 ft 516 kts 275°
2026-05-04 18:13 41.27401 36.51086 33890 ft 515 kts 290°
2026-05-04 18:14 41.30975 36.37560 33897 ft 514 kts 289°
2026-05-04 18:14 41.33279 36.28498 33889 ft 514 kts 288°
2026-05-04 18:15 41.37867 36.10326 33887 ft 514 kts 289°
2026-05-04 18:16 41.40152 36.01226 33888 ft 515 kts 289°
2026-05-04 18:16 41.42432 35.92108 33890 ft 516 kts 289°
2026-05-04 18:17 41.45845 35.78397 33887 ft 515 kts 289°
2026-05-04 18:18 41.49239 35.64681 33890 ft 517 kts 289°
2026-05-04 18:18 41.51503 35.55485 33890 ft 518 kts 289°
2026-05-04 18:19 41.54874 35.41729 33886 ft 516 kts 289°
2026-05-04 18:19 41.57122 35.32508 33885 ft 517 kts 289°
2026-05-04 18:20 41.59346 35.23348 33878 ft 517 kts 289°
2026-05-04 18:20 41.61566 35.14172 33887 ft 519 kts 289°
2026-05-04 18:21 41.63793 35.04930 33884 ft 519 kts 289°
2026-05-04 18:21 41.66014 34.95668 33879 ft 518 kts 289°
2026-05-04 18:22 41.68232 34.86392 33889 ft 516 kts 289°
2026-05-04 18:22 41.70431 34.77147 33887 ft 518 kts 290°
2026-05-04 18:23 41.72626 34.67894 33886 ft 517 kts 289°
2026-05-04 18:23 41.74590 34.58570 33858 ft 520 kts 279°
2026-05-04 18:24 41.74616 34.48747 33882 ft 524 kts 271°
2026-05-04 18:24 41.74569 34.38893 33887 ft 522 kts 272°
2026-05-04 18:25 41.74534 34.29099 33868 ft 523 kts 271°
2026-05-04 18:25 41.74491 34.19278 33856 ft 524 kts 271°
2026-05-04 18:26 41.74441 34.09542 33875 ft 525 kts 271°
2026-05-04 18:26 41.74382 33.99697 33872 ft 525 kts 272°
2026-05-04 18:27 41.74316 33.89851 33896 ft 524 kts 271°
2026-05-04 18:27 41.74239 33.80032 33895 ft 523 kts 272°
2026-05-04 18:28 41.74157 33.70207 33865 ft 523 kts 272°
2026-05-04 18:28 41.74064 33.60447 33893 ft 523 kts 272°
2026-05-04 18:29 41.73964 33.50597 33894 ft 524 kts 272°
2026-05-04 18:29 41.73854 33.40736 33880 ft 525 kts 273°
2026-05-04 18:30 41.73677 33.26020 33905 ft 525 kts 272°
2026-05-04 18:31 41.73546 33.16174 33881 ft 523 kts 272°
2026-05-04 18:31 41.73409 33.06408 33877 ft 525 kts 273°
2026-05-04 18:32 41.73287 32.96570 33868 ft 523 kts 273°
2026-05-04 18:32 41.73172 32.86798 33868 ft 524 kts 273°
2026-05-04 18:33 41.73047 32.76931 33911 ft 523 kts 273°
2026-05-04 18:33 41.72916 32.67218 33872 ft 523 kts 273°
2026-05-04 18:34 41.72774 32.57428 33890 ft 521 kts 273°
2026-05-04 18:34 41.72626 32.47652 33872 ft 521 kts 273°
2026-05-04 18:35 41.72465 32.37862 33935 ft 522 kts 273°
2026-05-04 18:35 41.71964 32.32972 33907 ft 531 kts 258°
2026-05-04 18:35 41.70565 32.28352 33911 ft 537 kts 243°
2026-05-04 18:35 41.68387 32.24303 33942 ft 543 kts 228°
2026-05-04 18:36 41.65510 32.20993 33906 ft 541 kts 216°
2026-05-04 18:36 41.59701 32.14515 33957 ft 543 kts 223°
2026-05-04 18:37 41.54331 32.07371 33938 ft 539 kts 236°
2026-05-04 18:37 41.52545 32.02997 33908 ft 534 kts 252°
2026-05-04 18:37 41.51589 31.98200 33922 ft 524 kts 266°
2026-05-04 18:37 41.51556 31.93371 33918 ft 504 kts 282°
2026-05-04 18:38 41.52090 31.88866 33967 ft 483 kts 283°
2026-05-04 18:38 41.52662 31.79862 33935 ft 485 kts 279°
2026-05-04 18:39 41.53129 31.70851 33928 ft 487 kts 279°
2026-05-04 18:39 41.53587 31.61735 33965 ft 488 kts 279°
2026-05-04 18:40 41.54033 31.52693 33930 ft 484 kts 279°
2026-05-04 18:40 41.54472 31.43655 33649 ft 483 kts 279°
2026-05-04 18:40 41.54683 31.39220 33188 ft 477 kts 280°
2026-05-04 18:41 41.54897 31.34776 32753 ft 472 kts 279°
2026-05-04 18:41 41.55179 31.30438 32370 ft 468 kts 281°
2026-05-04 18:41 41.55463 31.26088 32071 ft 464 kts 281°
2026-05-04 18:41 41.55741 31.21790 31740 ft 465 kts 282°
2026-05-04 18:42 41.56015 31.17522 31419 ft 461 kts 282°
2026-05-04 18:42 41.56288 31.13252 31048 ft 457 kts 282°
2026-05-04 18:42 41.56559 31.08972 30615 ft 455 kts 282°
2026-05-04 18:42 41.56826 31.04754 30129 ft 454 kts 282°
2026-05-04 18:43 41.57088 31.00550 29670 ft 451 kts 282°
2026-05-04 18:43 41.57349 30.96378 29273 ft 447 kts 283°
2026-05-04 18:43 41.57605 30.92252 28948 ft 441 kts 282°
2026-05-04 18:43 41.57860 30.88108 28640 ft 442 kts 283°
2026-05-04 18:44 41.58112 30.84001 28319 ft 442 kts 282°
2026-05-04 18:44 41.58196 30.82649 28192 ft 444 kts 282°
2026-05-04 18:44 41.58640 30.75421 27324 ft 480 kts 282°
2026-05-04 18:44 41.58843 30.70958 26766 ft 479 kts 276°
2026-05-04 18:45 41.58261 30.66489 26684 ft 481 kts 258°
2026-05-04 18:45 41.56876 30.62337 26179 ft 498 kts 244°
2026-05-04 18:45 41.55093 30.58376 25676 ft 492 kts 243°
2026-05-04 18:45 41.53351 30.54493 25162 ft 485 kts 244°
2026-05-04 18:46 41.51613 30.50605 24650 ft 479 kts 244°
2026-05-04 18:46 41.49908 30.46790 24144 ft 477 kts 244°
2026-05-04 18:46 41.48175 30.42921 23636 ft 476 kts 244°
2026-05-04 18:46 41.46470 30.39115 23144 ft 472 kts 244°
2026-05-04 18:47 41.44780 30.35348 22637 ft 466 kts 244°
2026-05-04 18:47 41.43126 30.31671 22192 ft 458 kts 243°
2026-05-04 18:47 41.41479 30.28004 22198 ft 461 kts 243°
2026-05-04 18:47 41.39810 30.24298 21427 ft 469 kts 243°
2026-05-04 18:48 41.38135 30.20584 20601 ft 459 kts 242°
2026-05-04 18:48 41.36485 30.16932 19879 ft 448 kts 242°
2026-05-04 18:48 41.34877 30.13379 19246 ft 443 kts 242°
2026-05-04 18:48 41.33291 30.09871 18748 ft 434 kts 242°
2026-05-04 18:49 41.31750 30.06474 18310 ft 426 kts 242°
2026-05-04 18:49 41.30211 30.03082 17931 ft 423 kts 242°
2026-05-04 18:49 41.28664 29.99676 17531 ft 421 kts 242°
2026-05-04 18:49 41.27148 29.96342 17108 ft 419 kts 242°
2026-05-04 18:50 41.25629 29.92996 16618 ft 416 kts 242°
2026-05-04 18:50 41.24135 29.89730 16123 ft 411 kts 242°
2026-05-04 18:50 41.22654 29.86479 15628 ft 409 kts 242°
2026-05-04 18:50 41.21161 29.83208 15121 ft 406 kts 242°
2026-05-04 18:51 41.19708 29.80031 14638 ft 402 kts 242°
2026-05-04 18:51 41.18237 29.76815 14136 ft 399 kts 242°
2026-05-04 18:51 41.16798 29.73673 13647 ft 398 kts 242°
2026-05-04 18:51 41.15351 29.70519 13143 ft 394 kts 242°
2026-05-04 18:52 41.13927 29.67418 12651 ft 390 kts 242°
2026-05-04 18:52 41.12551 29.64425 12167 ft 385 kts 242°
2026-05-04 18:52 41.11155 29.61390 11671 ft 381 kts 242°
2026-05-04 18:52 41.09775 29.58392 11177 ft 377 kts 242°
2026-05-04 18:53 41.08417 29.55446 10687 ft 372 kts 243°
2026-05-04 18:53 41.07073 29.52535 10218 ft 367 kts 243°
2026-05-04 18:53 41.05731 29.49628 9824 ft 364 kts 243°
2026-05-04 18:53 41.04400 29.46747 9400 ft 359 kts 243°
2026-05-04 18:54 41.03126 29.44004 8944 ft 330 kts 244°
2026-05-04 18:54 41.01967 29.41503 8711 ft 307 kts 244°
2026-05-04 18:54 41.00877 29.39154 8410 ft 292 kts 245°
2026-05-04 18:54 40.99815 29.36859 8152 ft 287 kts 245°
2026-05-04 18:55 40.98769 29.34597 7907 ft 288 kts 244°
2026-05-04 18:55 40.96663 29.30060 7408 ft 286 kts 245°
2026-05-04 18:55 40.95620 29.27814 7209 ft 286 kts 245°
2026-05-04 18:56 40.94567 29.25550 7023 ft 286 kts 245°
2026-05-04 18:56 40.93598 29.23271 6756 ft 277 kts 257°
2026-05-04 18:56 40.93199 29.20802 6521 ft 267 kts 269°
2026-05-04 18:56 40.92912 29.18375 6279 ft 266 kts 270°
2026-05-04 18:57 40.92655 29.15976 6038 ft 265 kts 270°
2026-05-04 18:57 40.92408 29.13537 5790 ft 264 kts 271°
2026-05-04 18:57 40.92166 29.11119 5545 ft 263 kts 270°
2026-05-04 18:57 40.91930 29.08747 5304 ft 262 kts 270°
2026-05-04 18:58 40.91689 29.06331 5055 ft 261 kts 270°
2026-05-04 18:58 40.91450 29.03959 4967 ft 254 kts 270°
2026-05-04 18:58 40.91219 29.01672 4980 ft 244 kts 270°
2026-05-04 18:58 40.91013 28.99483 4970 ft 236 kts 281°
2026-05-04 18:59 40.91391 28.97440 5003 ft 229 kts 296°
2026-05-04 18:59 40.91890 28.95424 4984 ft 229 kts 296°
2026-05-04 18:59 40.92410 28.93403 4996 ft 240 kts 296°
2026-05-04 18:59 40.92954 28.91298 4995 ft 243 kts 296°
2026-05-04 19:00 40.93510 28.89153 4987 ft 245 kts 296°
2026-05-04 19:00 40.94062 28.87024 4987 ft 245 kts 296°
2026-05-04 19:00 40.94687 28.84948 4971 ft 238 kts 309°
2026-05-04 19:00 40.95692 28.83242 5000 ft 239 kts 314°
2026-05-04 19:01 40.96748 28.81488 4995 ft 244 kts 314°
2026-05-04 19:01 40.97804 28.79755 4987 ft 244 kts 315°
2026-05-04 19:01 40.98884 28.77987 4986 ft 244 kts 315°
2026-05-04 19:01 40.99952 28.76241 4987 ft 243 kts 315°
2026-05-04 19:02 41.01032 28.74506 4980 ft 241 kts 320°
2026-05-04 19:02 41.02307 28.73325 4907 ft 209 kts 344°
2026-05-04 19:02 41.03649 28.73163 4814 ft 185 kts
2026-05-04 19:02 41.04892 28.73205 4537 ft 173 kts 360°
2026-05-04 19:03 41.06055 28.73175 4312 ft 159 kts 359°
2026-05-04 19:03 41.07109 28.73148 4192 ft 139 kts
2026-05-04 19:03 41.08027 28.73131 4200 ft 120 kts
2026-05-04 19:03 41.08847 28.73114 4193 ft 117 kts
2026-05-04 19:04 41.09666 28.73102 3991 ft 118 kts
2026-05-04 19:04 41.10479 28.73102 3791 ft 115 kts 359°
2026-05-04 19:04 41.11282 28.73083 3648 ft 116 kts
2026-05-04 19:04 41.12082 28.73083 3374 ft 114 kts
2026-05-04 19:05 41.12868 28.73084 3079 ft 113 kts
2026-05-04 19:05 41.13669 28.73083 2812 ft 116 kts
2026-05-04 19:05 41.14468 28.73053 2606 ft 117 kts 358°
2026-05-04 19:05 41.15258 28.73002 2457 ft 114 kts 357°
2026-05-04 19:06 41.16060 28.72954 2272 ft 117 kts 359°
2026-05-04 19:06 41.16858 28.72939 2150 ft 115 kts 359°
2026-05-04 19:06 41.17672 28.72929 1987 ft 118 kts 360°
2026-05-04 19:06 41.18495 28.72923 1830 ft 117 kts 359°
2026-05-04 19:07 41.19317 28.72918 1688 ft 119 kts 359°
2026-05-04 19:07 41.20143 28.72905 1540 ft 120 kts 357°
2026-05-04 19:07 41.20983 28.72868 1400 ft 119 kts 357°
2026-05-04 19:07 41.21820 28.72843 1203 ft 121 kts 359°
2026-05-04 19:08 41.22670 28.72845 1044 ft 123 kts 359°
2026-05-04 19:08 41.23521 28.72829 913 ft 123 kts 357°
2026-05-04 19:08 41.24382 28.72799 755 ft 124 kts 356°
2026-05-04 19:08 41.25259 28.72782 560 ft 126 kts 358°
2026-05-04 19:09 41.26145 28.72770 407 ft 127 kts 356°
2026-05-04 19:09 41.27011 28.72750 339 ft 111 kts
2026-05-04 19:09 41.27593 28.72752 339 ft 56 kts
2026-05-04 19:09 41.27915 28.72759 339 ft 33 kts 11°
2026-05-04 19:10 41.28078 28.72858 339 ft 16 kts 33°
2026-05-04 19:10 41.28127 28.72938 339 ft 9 kts 99°
2026-05-04 19:10 41.28055 28.72976 339 ft 0 kts 176°
2026-05-04 19:10 41.28023 28.72977 339 ft 9 kts 179°
2026-05-04 19:11 41.27988 28.72977 339 ft 1 kts 179°
2026-05-04 19:11 41.27946 28.72978 339 ft 7 kts 180°
2026-05-04 19:11 41.27887 28.72979 339 ft 15 kts 180°
2026-05-04 19:11 41.27737 28.72982 339 ft 24 kts 179°
2026-05-04 19:12 41.27596 28.72982 339 ft 20 kts 177°
2026-05-04 19:12 41.27255 28.72988 339 ft 25 kts 180°
2026-05-04 19:12 41.27075 28.72988 339 ft 21 kts 179°
2026-05-04 19:13 41.26940 28.72991 339 ft 14 kts 179°
2026-05-04 19:13 41.26890 28.72994 339 ft 1 kts 173°
2026-05-04 19:13 41.26867 28.73045 339 ft 13 kts 96°
2026-05-04 19:13 41.26866 28.73224 339 ft 22 kts 89°
2026-05-04 19:14 41.26867 28.73386 339 ft 17 kts 92°
2026-05-04 19:14 41.26866 28.73487 339 ft 16 kts 89°
2026-05-04 19:14 41.26869 28.73651 339 ft 11 kts 88°
2026-05-04 19:14 41.26871 28.73730 339 ft 8 kts 89°
2026-05-04 19:15 41.26871 28.73737 339 ft 0 kts 89°
2026-05-04 19:15 41.26872 28.73814 339 ft 15 kts 90°
2026-05-04 19:15 41.26871 28.73971 339 ft 12 kts 97°
2026-05-04 19:16 41.26860 28.74075 339 ft 10 kts 91°
2026-05-04 19:16 41.26860 28.74125 339 ft 5 kts 89°
2026-05-04 19:16 41.26860 28.74132 339 ft 0 kts 89°